Temp
11 12 13 16 18 21 20 20 20 19 18 20 18 19 19 19 19 18 17 16 16 17 21 23 23 23 23 22 21 21 19 18 18 16 16 16 16 16 16 15 15 15 15 15
13 13 16 18 18 19 20 20 19 18 19 20 18 19 19 18 18 18 18 17 18 18 17 19 22 22 22 22 21 21 20 19 18 16 16 16 16 16 16 16 15 15 15 15
13 16 18 18 19 19 19 19 17 19 18 19 20 19 20 19 20 18 20 18 18 17 17 17 19 20 20 20 20 20 20 19 18 17 16 16 15 15 15 15 15 15 15 15
15 18 18 18 19 19 19 20 18 16 18 19 19 18 18 17 18 17 17 16 16 16 15 16 17 17 18 19 19 19 19 18 18 18 17 16 16 16 16 16 16 15 15 15
16 17 17 18 19 20 20 17 17 17 18 17 18 18 18 17 18 17 16 15 14 14 14 13 14 15 16 17 17 19 19 19 18 18 19 18 17 16 16 15 15 15 15 14
17 17 18 19 18 19 17 18 17 16 15 16 17 17 17 17 19 17 16 14 13 12 11 12 14 14 14 14 15 16 17 18 18 18 18 18 17 16 15 15 15 14 14 14
16 16 17 17 18 17 18 18 14 16 14 15 13 15 17 19 19 17 16 13 12 11 11 10 11 12 12 13 14 15 16 16 17 17 18 16 16 15 15 14 14 13 13 13
15 14 16 17 18 16 17 17 13 16 13 15 14 16 18 17 14 14 14 12 11 10 10 9 10 11 11 12 12 13 14 14 15 16 16 16 15 14 14 13 13 13 12 12
16 15 15 15 16 18 17 17 16 13 4 12 14 16 17 16 15 13 12 11 10 10 9 9 10 11 11 11 12 12 12 12 13 14 14 14 13 13 12 12 11 11 11 11
17 14 14 15 16 17 17 17 16 13 12 13 14 17 17 14 14 12 12 11 10 9 9 8 9 10 11 11 11 11 11 11 11 12 12 12 11 11 11 11 11 10 10 10
17 15 13 15 15 15 16 16 16 15 13 13 12 15 14 16 14 13 11 11 10 10 8 8 9 10 10 10 11 10 10 10 10 11 10 10 10 10 10 10 10 10 10 10
16 13 11 13 14 14 15 16 16 15 15 14 12 16 16 15 14 14 12 12 10 10 9 8 9 9 9 9 9 9 9 9 9 9 10 9 9 9 10 10 9 9 10 9
15 12 10 14 15 14 15 16 17 14 11 13 13 15 14 15 12 13 12 11 11 9 8 7 8 8 8 9 9 9 9 8 9 9 9 9 9 9 9 9 9 9 9 9
15 13 13 14 16 14 14 15 15 16 12 12 12 17 16 14 13 12 11 11 10 10 9 8 8 8 8 8 8 8 8 8 8 8 8 8 8 8 8 8 8 8 8 8
16 13 15 17 16 15 15 15 14 16 18 18 18 16 17 14 13 13 12 11 10 10 10 9 8 8 7 7 7 7 7 7 7 8 8 7 7 7 7 8 7 7 7 7
14 12 15 13 14 16 15 15 15 15 15 16 16 16 16 14 12 12 12 12 11 10 10 10 9 8 7 6 6 6 6 7 7 7 7 7 7 7 7 7 7 7 7 7
13 10 9 10 12 13 12 12 15 16 15 17 15 18 16 14 14 14 12 12 12 11 11 10 9 8 7 6 6 6 6 6 7 7 6 6 6 6 6 6 6 7 6 6
12 11 8 7 8 11 14 14 15 16 16 17 16 17 16 15 15 15 14 13 13 12 11 10 9 8 7 7 6 6 6 6 6 5 5 5 5 6 6 5 5 5 5 5
13 12 9 10 7 12 14 14 13 13 16 15 16 17 15 15 14 13 14 14 13 12 12 10 9 8 6 6 6 6 5 5 5 5 5 5 5 5 5 5 5 5 5 4
11 13 13 8 11 10 17 14 13 15 14 15 15 15 13 13 14 15 12 13 12 12 10 8 6 6 6 6 5 5 4 4 4 4 4 4 5 5 5 4 4 3 3 2
8 8 11 8 9 9 10 12 13 13 16 11 14 15 12 15 18 17 11 10 10 9 7 5 5 5 4 5 5 4 3 3 3 3 3 3 4 4 3 2 2 2 2 2
10 9 10 8 9 12 9 11 14 15 12 12 13 12 12 13 11 10 9 7 6 5 4 5 4 3 3 4 4 3 3 2 2 2 2 2 2 2 1 2 1 1 1 1
10 10 10 12 14 9 8 10 8 8 10 10 11 11 11 8 7 5 4 4 4 4 4 3 2 1 2 3 4 2 1 1 1 1 1 1 1 0 1 1 1 1 -1 -3
5 3 7 10 7 8 8 7 8 8 9 8 8 8 6 7 4 3 2 2 2 1 1 -0 0 -1 -1 1 2 3 1 1 1 0 0 0 1 0 -0 -0 -1 -2 -4 -6
5 5 6 6 4 3 6 5 7 7 6 7 6 6 5 3 3 3 2 1 1 -0 -1 -1 -1 -2 -2 -0 0 -0 -0 -1 0 -0 -1 -0 -1 -1 -1 -2 -4 -5 -6 -8
4 6 8 7 7 7 8 5 6 7 7 5 5 4 3 3 2 1 1 1 -0 -1 -1 -2 -2 -3 -4 -2 -2 -3 -2 -1 -2 -1 -2 -3 -2 -2 -4 -5 -6 -7 -9 -9
Height
819 826 819 806 800 794 801 808 813 816 813 816 824 823 818 816 816 820 821 824 823 821 817 820 823 826 831 834 837 841 844 848 852 857 861 865 866 869 872 874 876 877 879 881
815 814 804 797 797 802 798 808 816 819 814 812 823 822 816 817 815 812 813 817 817 819 819 819 821 824 826 830 834 836 839 844 848 851 858 862 865 868 870 872 874 875 876 877
804 795 796 796 795 801 801 806 817 816 820 816 817 826 817 811 808 809 807 810 811 815 818 819 820 823 825 828 830 833 836 839 844 848 854 859 863 865 868 869 870 871 872 873
800 784 790 792 793 793 804 792 803 816 819 831 818 839 819 814 810 810 809 811 813 813 816 818 820 821 823 826 827 830 833 836 840 846 850 853 857 861 864 867 869 870 871 871
791 783 790 788 783 783 792 795 803 811 818 825 825 836 817 812 813 812 810 812 812 813 815 818 820 822 822 824 826 828 831 834 836 841 846 850 855 858 861 864 866 868 869 870
777 776 778 777 779 778 789 797 805 816 828 840 823 829 823 814 800 805 807 812 813 815 817 817 821 822 822 822 823 825 828 831 834 838 843 847 850 855 859 861 863 864 866 868
780 780 776 774 781 784 786 798 840 841 850 840 835 831 812 794 791 792 799 810 813 814 819 820 822 822 822 821 823 823 826 828 832 837 842 847 850 853 856 859 862 863 864 866
785 795 781 771 774 784 790 795 827 827 849 837 832 826 805 793 795 791 795 806 811 815 818 820 822 822 822 821 823 824 825 829 831 835 841 847 852 855 855 857 862 864 864 865
774 782 779 780 775 771 788 797 793 824 885 846 828 812 798 798 799 801 803 807 812 816 818 820 821 822 821 821 823 825 826 829 830 834 838 844 852 856 855 858 860 863 864 865
757 786 784 779 772 774 777 781 802 816 843 840 826 812 803 807 802 803 807 807 811 814 816 819 823 824 825 825 826 826 828 830 833 835 841 845 849 855 857 858 859 863 865 866
751 768 790 780 781 782 783 787 787 796 814 827 840 815 786 780 788 793 801 803 807 812 815 817 823 824 826 828 828 829 833 834 837 839 844 847 851 854 858 858 860 862 865 865
749 772 791 784 778 778 773 776 780 799 809 812 821 801 776 777 782 785 794 799 809 812 814 818 820 823 826 828 830 833 837 837 839 843 846 849 852 854 857 858 859 861 863 864
749 772 797 787 779 777 776 774 773 785 805 808 821 803 778 775 783 786 792 797 806 813 817 818 822 825 828 829 832 834 837 840 842 844 847 850 852 856 858 859 860 861 862 863
738 758 763 769 759 768 778 775 776 776 804 805 804 783 778 780 785 790 793 795 803 808 811 815 821 823 827 829 831 834 838 841 844 845 848 850 853 855 857 859 860 860 861 862
739 759 752 747 749 754 760 765 773 770 762 774 766 776 769 776 778 779 786 795 800 803 807 811 816 820 825 828 830 834 838 840 844 845 847 850 853 855 856 858 860 859 860 861
739 756 747 761 756 751 760 761 762 763 770 771 770 770 758 766 774 779 780 788 794 797 800 804 810 815 821 826 828 832 835 839 842 844 846 850 852 854 855 858 858 859 859 858
739 761 775 778 765 763 776 763 758 755 761 752 771 752 757 767 767 769 776 779 780 785 791 796 802 807 815 820 824 828 832 837 840 842 845 848 850 852 852 855 857 857 857 856
745 756 777 796 790 786 749 742 742 745 745 746 748 747 749 753 753 755 760 764 771 777 781 790 796 805 811 815 820 824 830 835 839 841 844 847 849 850 851 853 855 855 855 853
738 748 771 777 802 761 741 741 745 751 744 744 740 737 744 748 753 755 753 756 757 761 768 777 787 796 804 809 815 821 828 832 835 838 841 844 846 847 849 851 851 850 849 847
740 739 743 779 774 774 710 733 736 739 748 729 731 734 744 750 760 746 745 745 751 758 764 772 783 791 801 807 812 818 824 828 831 833 837 840 842 843 845 846 845 846 844 842
756 761 749 774 775 761 733 729 730 757 723 725 721 726 738 740 727 720 733 741 745 751 760 769 776 785 793 801 808 815 820 825 828 830 834 837 838 840 842 842 842 841 839 837
734 752 755 771 773 740 724 726 726 716 719 722 720 724 728 726 729 730 732 737 742 749 759 767 775 783 791 799 804 811 817 821 825 828 831 833 836 838 839 837 836 836 833 831
731 724 736 728 713 722 723 720 723 725 723 723 723 724 725 732 735 737 739 741 746 750 757 764 771 782 792 799 804 808 814 820 822 825 828 831 832 834 833 832 831 830 831 829
738 744 734 725 730 726 726 728 727 727 726 727 726 727 729 731 736 741 743 746 748 753 758 763 771 781 791 800 804 808 812 817 820 824 825 828 829 831 829 829 829 829 829 828
736 740 740 738 738 741 732 732 728 727 727 728 729 729 730 733 738 741 744 747 750 754 761 768 773 781 790 797 802 808 811 815 818 821 822 823 824 823 823 824 826 827 828 826
735 730 727 733 734 733 732 731 729 730 730 732 732 731 731 732 736 741 747 748 751 757 762 769 776 782 789 796 800 806 809 813 815 815 818 821 822 821 820 820 822 825 824 822
Wind_Speed
9 6 13 7 4 3 7 6 7 1 6 5 9 6 8 8 5 8 8 9 9 9 15 18 19 25 26 27 29 29 29 28 24 25 23 21 20 18 17 16 15 14 12 13
10 21 14 8 6 9 4 8 4 4 1 3 6 9 6 7 7 8 9 9 10 6 6 11 16 19 23 26 30 31 31 29 26 27 24 19 19 17 17 15 14 14 13 14
17 12 14 14 8 11 7 7 6 7 4 2 4 5 5 7 5 6 5 6 5 10 9 6 10 10 12 16 19 25 30 30 28 25 25 19 14 15 14 17 17 16 14 14
11 16 19 15 12 8 7 5 7 12 6 4 3 4 6 7 9 9 9 8 8 8 6 5 7 6 7 10 13 14 18 25 29 27 25 24 20 15 14 13 10 9 9 9
13 17 20 9 9 6 4 9 8 4 5 5 3 2 6 6 5 8 8 8 8 8 8 8 8 6 6 10 12 15 15 16 23 27 22 19 17 14 11 8 7 5 5 5
4 2 6 7 2 7 7 8 8 5 4 1 5 6 5 6 8 5 5 7 8 8 7 8 7 6 4 5 10 14 14 16 16 25 20 17 16 12 10 8 8 6 4 4
2 1 1 4 7 4 8 7 2 2 1 5 3 4 7 5 7 9 13 9 9 8 7 6 7 9 9 9 11 17 20 19 19 18 20 15 11 9 10 9 8 7 6 3
6 4 5 2 7 8 8 7 6 6 4 3 3 6 5 1 6 8 11 11 8 8 7 7 9 10 12 13 17 21 23 22 20 19 18 15 10 11 11 10 7 7 7 5
6 4 0 2 1 9 5 4 5 7 3 4 4 4 4 0 5 5 10 9 9 8 8 8 11 13 17 17 17 19 22 22 21 21 19 18 14 13 15 14 13 13 11 10
6 5 2 1 1 2 6 7 3 3 5 3 3 3 5 8 12 8 9 10 9 8 9 7 12 16 17 20 23 24 25 27 26 26 26 24 22 20 20 19 18 15 14 12
5 4 2 2 5 8 3 3 3 5 4 5 3 6 7 13 13 16 10 10 12 11 10 9 15 19 21 23 25 27 28 29 29 29 28 28 25 23 21 21 18 16 13 12
2 5 4 5 1 2 2 6 6 5 5 1 3 5 1 3 11 15 13 12 9 10 10 9 18 23 24 25 26 27 28 30 30 30 29 28 25 23 21 19 17 14 13 11
7 1 4 3 2 1 3 4 4 5 4 7 5 5 3 2 7 9 13 13 13 11 10 9 15 18 23 25 27 27 28 29 29 29 29 26 24 21 19 17 15 13 12 11
8 4 7 9 7 7 7 7 5 6 4 5 6 5 4 6 8 8 11 14 13 14 14 11 11 17 22 26 28 28 28 28 28 28 27 25 21 19 17 14 12 12 11 11
5 6 5 3 7 8 6 9 8 12 15 10 11 10 6 10 12 15 12 13 16 15 15 14 13 17 22 26 29 29 28 28 27 26 25 22 19 16 14 12 10 10 10 11
1 3 4 2 3 4 5 10 16 15 5 7 5 6 7 8 8 11 16 16 17 17 17 15 15 21 22 24 28 30 29 27 25 25 23 19 16 13 11 9 9 9 9 10
7 5 3 4 2 6 4 12 16 14 6 17 8 13 6 5 12 15 16 19 21 20 19 18 18 24 26 28 32 33 31 27 25 24 21 17 13 10 9 7 7 8 9 11
5 6 3 3 3 3 8 9 13 18 12 17 8 6 11 8 15 15 19 23 21 19 20 18 24 26 29 35 36 34 31 27 25 22 18 14 10 8 7 6 6 8 11 14
5 4 3 5 3 5 5 6 7 9 12 7 18 15 6 3 5 7 16 18 22 24 23 28 32 34 32 37 37 35 31 27 23 20 15 11 8 6 5 4 6 9 12 16
3 3 5 2 5 8 18 7 6 7 12 11 14 13 8 8 5 10 14 19 15 22 28 30 32 35 38 39 39 37 32 27 23 18 14 9 7 4 2 4 7 11 15 18
4 2 7 4 3 9 7 8 9 7 12 7 11 12 11 10 18 13 10 8 18 25 29 34 38 37 36 42 40 36 31 25 20 16 13 9 6 3 1 5 9 13 17 21
8 7 4 2 2 17 6 4 17 9 1 3 3 7 12 10 3 5 9 13 18 22 29 34 33 30 37 42 40 34 29 23 18 15 11 8 5 2 2 6 10 14 18 21
3 5 7 12 14 1 1 1 2 2 2 2 0 3 3 6 5 6 6 11 12 25 28 30 33 32 35 37 36 33 25 20 17 13 10 7 3 1 4 9 12 16 17 18
2 1 2 3 3 1 1 3 2 2 1 1 2 2 6 5 7 7 8 10 12 20 24 29 33 30 31 29 28 26 23 18 14 12 8 5 1 3 7 9 12 14 15 16
1 2 4 5 3 3 5 5 2 4 4 1 1 3 6 8 6 7 9 10 14 19 22 28 29 28 31 28 26 22 19 16 13 10 7 2 2 6 9 10 11 12 10 10
4 5 3 2 2 2 1 5 3 2 3 4 3 3 4 6 8 7 8 13 18 21 25 25 27 32 32 28 24 20 16 14 13 8 4 1 3 6 8 12 14 11 7 10
Wind_Direction
181 197 229 222 154 210 139 149 148 160 183 128 189 194 209 207 186 199 205 211 204 201 206 193 187 189 192 195 195 200 197 201 202 201 206 211 214 218 221 225 228 232 237 241
158 218 225 244 196 230 221 184 143 39 1 108 168 230 226 196 214 193 185 198 193 164 150 165 179 187 190 196 199 200 207 208 206 199 204 208 215 221 227 234 237 245 251 255
193 215 214 228 195 219 191 211 171 150 160 33 117 299 216 234 214 201 190 166 158 171 168 159 154 169 182 190 194 201 207 206 206 202 200 203 212 225 227 232 241 248 254 260
218 233 200 220 207 176 191 192 150 135 125 191 165 249 239 214 196 190 179 170 157 135 132 135 144 155 196 208 206 200 197 203 203 202 198 199 209 218 231 239 248 253 254 258
206 194 199 203 198 152 185 144 137 130 112 118 198 119 260 138 201 212 202 192 177 165 145 132 132 164 201 223 220 205 195 192 199 198 205 206 204 208 212 216 218 228 235 239
178 204 173 187 121 159 135 100 54 62 79 246 207 156 266 187 200 171 176 173 152 125 121 118 127 148 163 192 204 200 178 174 179 191 203 204 195 189 194 185 168 171 173 148
107 19 268 191 102 7 128 125 66 60 277 216 355 151 242 234 220 179 168 162 155 143 141 131 130 129 128 126 143 146 151 135 148 154 182 174 162 180 189 172 160 144 140 141
147 189 195 191 167 171 168 146 153 165 179 217 345 222 247 299 327 140 135 148 143 140 141 138 137 128 130 131 125 127 130 121 128 136 143 172 160 158 152 160 176 174 142 117
149 184 183 25 8 156 213 169 165 103 38 80 203 273 287 349 64 112 142 141 145 147 145 139 132 125 122 126 133 133 130 127 132 137 145 149 154 157 144 134 128 120 113 106
180 118 331 284 88 18 167 162 97 15 134 210 287 240 218 201 198 174 173 163 160 150 137 130 131 125 124 122 125 128 129 127 130 132 135 136 134 131 126 124 115 109 101 91
137 114 226 147 203 168 139 188 90 114 133 156 154 251 218 206 189 185 181 174 163 157 148 142 142 134 129 130 129 129 130 128 127 129 128 127 124 122 119 112 105 98 90 75
139 107 138 200 228 308 88 186 151 155 220 180 151 265 153 253 197 175 177 165 161 157 151 148 144 139 138 135 134 133 133 130 129 129 128 124 122 119 112 105 99 94 82 68
176 134 97 26 352 54 193 210 152 119 94 193 138 257 4 345 139 174 157 156 159 154 150 145 142 142 144 143 140 138 137 134 134 133 128 124 119 114 105 99 92 81 69 54
106 158 158 185 195 138 179 191 185 130 137 168 216 212 264 169 160 159 158 158 157 161 162 157 155 157 153 150 147 142 140 141 138 133 127 120 116 110 102 92 82 70 55 40
142 176 162 186 168 161 164 187 172 198 207 191 220 199 211 196 180 180 163 159 163 168 168 168 165 159 155 153 150 149 145 143 141 131 125 118 114 107 97 84 72 58 42 29
53 205 139 89 63 125 177 190 192 213 179 239 155 239 204 197 141 165 175 168 176 181 176 171 167 163 160 157 154 153 150 147 144 135 127 123 117 107 94 75 58 42 29 19
129 125 92 230 80 88 354 207 196 215 198 217 187 220 161 165 183 183 179 184 188 186 178 176 174 166 164 163 160 157 154 151 146 137 132 128 120 110 91 70 46 28 17 6
125 122 91 138 38 150 248 176 189 204 211 216 228 208 183 185 200 193 190 189 191 184 183 179 170 166 164 168 167 157 154 152 145 137 134 129 118 101 84 60 39 16 2 356
158 160 130 133 193 288 280 234 175 168 243 212 219 231 191 120 96 247 205 197 193 191 183 177 172 168 166 165 163 158 156 153 149 144 141 135 128 115 89 52 19 1 348 347
82 138 152 123 179 217 243 158 131 89 270 210 214 218 164 134 195 237 194 198 193 180 172 166 159 157 160 167 166 160 159 158 156 151 147 146 140 128 87 18 359 349 345 342
110 62 187 157 200 270 219 203 132 154 256 205 206 207 168 188 217 241 153 176 173 165 162 157 157 160 163 167 166 162 162 161 157 155 154 156 155 150 20 0 348 343 338 337
156 147 172 98 98 258 162 74 165 212 59 155 168 194 191 209 146 174 163 153 153 152 153 157 153 154 162 169 169 162 163 160 159 158 158 158 158 137 352 350 346 343 343 342
197 183 175 187 211 241 72 71 41 70 138 159 15 347 207 164 190 144 138 143 148 150 151 154 149 145 161 169 172 163 161 163 163 162 158 154 146 61 351 343 344 345 348 347
283 352 165 97 283 186 333 335 306 350 27 221 255 250 174 179 154 134 132 139 142 146 147 144 142 144 153 167 169 166 162 166 165 162 156 161 170 333 346 349 354 354 349 340
146 93 163 281 292 336 315 265 351 338 340 310 106 184 182 143 147 148 149 146 144 141 141 147 145 145 152 161 162 164 164 167 166 171 165 163 318 344 348 354 2 349 342 329
189 162 166 220 304 90 305 313 172 223 247 225 187 132 127 145 154 141 144 145 144 143 145 143 147 151 158 161 160 164 166 174 178 161 159 202 340 344 346 349 344 357 345 328